Regional Weather Roundup
Issued by NWS

Home | Current Version | Previous Version | Text Only | Print | Product List | Glossary On
Versions: 1 2 3 4 5 6 7 8 9 10 11 12 13 14 15 16 17 18 19 20 21 22 23 24 25 26 27 28 29 30 31 32 33 34 35 36 37 38 39 40 41 42 43 44 45 46 47 48 49 50
000
ASUS43 KDTX 201910
RWRMI
MICHIGAN HOURLY REGIONAL WEATHER ROUNDUP
NATIONAL WEATHER SERVICE DETROIT/PONTIAC MI
300 PM EDT SUN APR 20 2014

NOTE: "FAIR" INDICATES FEW OR NO CLOUDS BELOW 12,000 FEET WITH NO
SIGNIFICANT WEATHER AND/OR OBSTRUCTION TO VISIBILITY.

MIZ047>049-052>055-059>063-066>070-074>076-081>083-202000-
SOUTHEAST LOWER MICHIGAN

CITY           SKY/WX    TMP DP  RH WIND       PRES   REMARKS
ADRIAN         SUNNY     69  28  21 SW7       30.22F
ALMA           SUNNY     67  29  24 S5        30.18F
ANN ARBOR      SUNNY     70  27  20 S10G17    30.21F
BAD AXE        SUNNY     67  29  24 SW12      30.19F
CARO           SUNNY     72  25  17 SE8       30.17F
DETROIT CITY   MOSUNNY   70  28  21 S8        30.22F
DETROIT        PTSUNNY   69  29  22 CALM      30.22F
FLINT          MOSUNNY   72  26  18 S7        30.19F
GROSSE ILE     MOSUNNY   55  37  50 S6        30.22F
HILLSDALE      SUNNY     70  25  18 S7        30.21F
HOWELL         SUNNY     69  26  19 S8        30.19F

CITY           SKY/WX    TMP DP  RH WIND       PRES   REMARKS
JACKSON        SUNNY     69  25  19 S9G16     30.19F
LAMBERTVILLE   MOSUNNY   70  28  21 SW6       30.21F
LANSING        MOSUNNY   71  28  20 S7        30.19F
LAPEER         FAIR      69  22  16 S10G17    30.20F
MASON          MOSUNNY   70  30  22 CALM      30.19F
MONROE         MOSUNNY   66  37  34 SE3       30.21F
MT. CLEMENS    PTSUNNY   62  40  44 E9        30.21F
PONTIAC        PTSUNNY   67  28  23 S8        30.21F
PORT HOPE        N/A     55  38  52 NW7       30.18F
PORT HURON     SUNNY     68  32  26 SW12G17   30.22F
TRI CITIES     SUNNY     70  28  21 SW10      30.18F
TROY           MOSUNNY   69  28  21 S8        30.22F
SAGINAW HB     SUNNY     70  28  21 SW12      30.18F
YPSILANTI      MOSUNNY   72  28  19 SW8       30.21F
$$
MIZ043>046-050>051-056>058-064>065-071>073-077>080-202000-
SOUTHWEST LOWER MICHIGAN

CITY           SKY/WX    TMP DP  RH WIND       PRES   REMARKS
BATTLE CREEK   MOSUNNY   69  30  23 S14       30.20F
BENTON HARBOR  MOSUNNY   71  36  27 S7        30.17F
BIG RAPIDS     MOSUNNY   69  36  29 SW10G17   30.15F
COLDWATER      SUNNY     69  24  18 S7        30.19F
FREMONT        FAIR      69  33  26 SW10      30.16F
HOLLAND        SUNNY     72  38  29 SW9       30.18F
GRAND RAPIDS   MOSUNNY   71  33  24 S9        30.18F
IONIA          FAIR      70  31  23 W9        30.17F
KALAMAZOO      MOSUNNY   70  28  21 S12       30.19F
LUDINGTON      MOSUNNY   67  37  32 S13       30.15F
MARSHALL       MOSUNNY   68  27  21 S3        30.18F
MOUNT PLEASANT SUNNY     69  32  25 S8        30.17F
MUSKEGON       MOSUNNY   68  32  26 S16G24    30.18F
SOUTH HAVEN    SUNNY     71  29  21 W5        30.17F
$$
MIZ016>042-202000-
NORTHERN LOWER MICHIGAN

CITY           SKY/WX    TMP DP  RH WIND       PRES   REMARKS
ALPENA         CLOUDY    51  38  60 SE5       30.16F
BEAVER ISLAND  LGT RAIN  43  37  78 SW15G23   30.12F
BELLAIRE       CLOUDY    62  32  32 CALM      30.13S
CADILLAC       MOSUNNY   68  38  33 SW13      30.13F
CHARLEVOIX     LGT RAIN  54  39  56 CALM      30.15F
FRANKFORT      PTSUNNY   53  33  48 SW6       30.15S
GAYLORD        CLOUDY    60  32  34 S9        30.13F
GRAYLING       CLOUDY    68  31  25 SW6       30.14F
HARBOR SPRINGS LGT RAIN  52  45  75 CALM      30.13S
HOUGHTON LAKE  MOSUNNY   68  30  24 VRB7      30.15F
MANISTEE       PTSUNNY   66  36  32 SW7       30.14F
OSCODA         MOSUNNY   67  16  14 S14G20    30.16F
PELLSTON       LGT RAIN  51  42  71 CALM      30.13F
ROGERS CITY    LGT RAIN  58  34  40 S8        30.15F
TRAVERSE CITY  CLOUDY    68  35  29 W10       30.11F
$$
MIZ007>008-015-202000-
EASTERN UPPER MICHIGAN

CITY           SKY/WX    TMP DP  RH WIND       PRES   REMARKS
KINROSS        CLOUDY    39  39 100 SE5       30.13F
MACKINAC ISLAN LGT RAIN  45  44  97 S6        30.12F
NEWBERRY       CLOUDY    40  33  76 SW15      30.10F WCI  32
S. S. MARIE    LGT RAIN  38  36  92 E5        30.14F FOG     WCI  34
MUNISING         N/A     52  40  63 S9        30.04F
$$
MIZ004>006-011>014-085-202000-
CENTRAL UPPER MICHIGAN

CITY           SKY/WX    TMP DP  RH WIND       PRES   REMARKS
MANISTIQUE     CLOUDY    38  35  89 S12       30.10F WCI  31
ESCANABA       CLOUDY    41  36  81 S9        30.08F
MENOMINEE      CLOUDY    46  43  87 S7        30.08F
SAWYER-GWINN   SUNNY     59  46  63 S13       30.03F
$$
MIZ001>003-009>011-084-202000-
WESTERN UPPER MICHIGAN

CITY           SKY/WX    TMP DP  RH WIND       PRES   REMARKS
IRON MOUNTAIN  CLOUDY    58  47  66 S6        30.02F
HOUGHTON       SUNNY     51  38  60 W12       30.01S
COPPER HARBOR    N/A     39  33  79 N10       30.01S WCI  32
IRONWOOD       SUNNY     63  41  45 NW10      29.97S
$$

ABBREVIATIONS USED IN REMARKS
   TC - TEMPERATURE IN CELSIUS
  WCI - WIND CHILL INDEX
   HX - HEAT INDEX
  VSB - VISIBILITY




USA.gov is the U.S. government's official web portal to all federal, state and local government web resources and services.